OK,45,65,947,45,2014-10-01T01:40:00,2,28072717,180926
OK,45,65,947,45,2014-10-01T01:45:00,2,28073164,180926
OK,45,65,947,45,2014-10-01T01:50:00,0,28073612,180926
OK,45,65,947,45,2014-10-01T01:55:00,0,28073930,180926
OK,45,65,947,45,2014-10-01T02:00:00,0,28074379,180926
OK,45,65,947,45,2014-10-01T02:05:00,0,28074820,180926
OK,45,65,947,45,2014-10-01T02:10:00,0,28075268,180926
OK,45,65,947,45,2014-10-01T02:15:00,0,28075717,180926
OK,45,65,947,45,2014-10-01T02:20:00,0,28076100,180926
OK,45,65,947,45,2014-10-01T02:25:00,0,28076549,180926
OK,45,65,947,45,2014-10-01T02:30:00,0,28076998,180926
OK,45,65,947,45,2014-10-01T02:35:00,0,28077447,180926
OK,45,65,947,45,2014-10-01T02:40:00,0,28077850,180926
OK,45,65,947,45,2014-10-01T02:45:00,0,28078299,180926
OK,45,65,947,45,2014-10-01T02:50:00,0,28078744,180926
OK,45,65,947,45,2014-10-01T02:55:00,0,28079193,180926
OK,45,65,947,45,2014-10-01T03:00:00,0,28079635,180926
OK,45,65,947,45,2014-10-01T03:05:00,0,28080084,180926
OK,45,65,947,45,2014-10-01T03:10:00,0,28080418,180926
OK,45,65,947,45,2014-10-01T03:15:00,0,28080867,180926
OK,45,65,947,45,2014-10-01T03:20:00,0,28081316,180926
OK,45,65,947,45,2014-10-01T03:25:00,0,28081763,180926
OK,45,65,947,45,2014-10-01T03:30:00,0,28082212,180926
OK,46,63,947,46,2014-10-01T03:35:00,1,28082645,180926
OK,43,68,947,43,2014-10-01T03:40:00,2,28083077,180926
OK,91,32,947,91,2014-10-01T03:45:00,2,28083526,180926
OK,83,35,947,83,2014-10-01T03:50:00,2,28083975,180926
OK,83,35,947,83,2014-10-01T03:55:00,0,28084416,180926
OK,83,35,947,83,2014-10-01T04:00:00,1,28084841,180926
OK,83,35,947,83,2014-10-01T04:05:00,0,28085290,180926
OK,61,47,947,61,2014-10-01T04:10:00,1,28085735,180926
OK,62,47,947,62,2014-10-01T04:15:00,6,28086184,180926
OK,53,55,947,53,2014-10-01T04:20:00,6,28086626,180926
OK,54,54,947,54,2014-10-01T04:25:00,7,28087075,180926
OK,53,55,947,53,2014-10-01T04:30:00,1,28087520,180926
OK,53,55,947,53,2014-10-01T04:35:00,0,28087969,180926
OK,65,45,947,65,2014-10-01T04:40:00,2,28088393,180926
OK,60,48,947,60,2014-10-01T04:45:00,5,28088842,180926
OK,86,34,947,86,2014-10-01T04:50:00,10,28089272,180926
OK,76,38,947,76,2014-10-01T04:55:00,10,28089721,180926
OK,68,43,947,68,2014-10-01T05:00:00,7,28090170,180926
OK,72,40,947,72,2014-10-01T05:05:00,9,28090516,180926
OK,65,45,947,65,2014-10-01T05:10:00,8,28090963,180926
OK,59,49,947,59,2014-10-01T05:15:00,5,28091412,180926
OK,61,47,947,61,2014-10-01T05:20:00,6,28091829,180926
OK,90,32,947,90,2014-10-01T05:25:00,8,28092278,180926
OK,101,28,947,101,2014-10-01T05:30:00,11,28092722,180926
OK,77,38,947,77,2014-10-01T05:35:00,10,28093163,180926
OK,110,26,947,110,2014-10-01T05:40:00,9,28093594,180926
OK,104,28,947,104,2014-10-01T05:45:00,8,28094043,180926
OK,105,27,947,105,2014-10-01T05:50:00,14,28094454,180926
OK,112,26,947,112,2014-10-01T05:55:00,13,28094899,180926
OK,105,27,947,105,2014-10-01T06:00:00,7,28095346,180926
OK,104,28,947,104,2014-10-01T06:05:00,4,28095795,180926
OK,57,51,947,57,2014-10-01T06:10:00,9,28096208,180926
OK,52,56,947,52,2014-10-01T06:15:00,13,28096657,180926
OK,98,29,947,98,2014-10-01T06:20:00,15,28097091,180926
OK,98,29,947,98,2014-10-01T06:25:00,13,28097540,180926
OK,109,26,947,109,2014-10-01T06:30:00,7,28097989,180926
OK,69,42,947,69,2014-10-01T06:35:00,8,28098426,180926
OK,49,59,947,49,2014-10-01T06:40:00,6,28098870,180926
OK,80,36,947,80,2014-10-01T06:45:00,12,28099318,180926
OK,72,40,947,72,2014-10-01T06:50:00,10,28099661,180926
OK,51,57,947,51,2014-10-01T06:55:00,11,28100110,180926
OK,51,57,947,51,2014-10-01T07:00:00,9,28100417,180926
OK,101,28,947,101,2014-10-01T07:05:00,4,28100866,180926
OK,51,57,947,51,2014-10-01T07:10:00,6,28101237,180926
OK,45,65,947,45,2014-10-01T07:15:00,7,28101686,180926
OK,45,65,947,45,2014-10-01T07:20:00,10,28102122,180926
OK,59,49,947,59,2014-10-01T07:25:00,11,28102571,180926
OK,71,41,947,71,2014-10-01T07:30:00,14,28102999,180926
OK,62,47,947,62,2014-10-01T07:35:00,13,28103445,180926
OK,69,42,947,69,2014-10-01T07:40:00,8,28103890,180926
OK,57,51,947,57,2014-10-01T07:45:00,5,28104335,180926
OK,59,49,947,59,2014-10-01T07:50:00,12,28104776,180926
OK,68,43,947,68,2014-10-01T07:55:00,12,28105221,180926
OK,68,43,947,68,2014-10-01T08:00:00,8,28105661,180926
OK,65,45,947,65,2014-10-01T08:05:00,7,28106110,180926
OK,58,50,947,58,2014-10-01T08:10:00,10,28106547,180926
OK,65,45,947,65,2014-10-01T08:15:00,11,28106953,180926
OK,65,45,947,65,2014-10-01T08:20:00,10,28107385,180926
OK,64,45,947,64,2014-10-01T08:25:00,10,28107834,180926
OK,66,44,947,66,2014-10-01T08:30:00,7,28108273,180926
OK,67,43,947,67,2014-10-01T08:35:00,7,28108722,180926
OK,70,41,947,70,2014-10-01T08:40:00,10,28109150,180926
OK,69,42,947,69,2014-10-01T08:45:00,4,28109599,180926
OK,68,43,947,68,2014-10-01T08:50:00,3,28109942,180926
OK,59,49,947,59,2014-10-01T08:55:00,6,28110391,180926
OK,58,50,947,58,2014-10-01T09:00:00,4,28110814,180926
OK,71,41,947,71,2014-10-01T09:05:00,2,28111263,180926
OK,64,45,947,64,2014-10-01T09:10:00,7,28111692,180926
OK,63,46,947,63,2014-10-01T09:15:00,10,28112141,180926
OK,65,45,947,65,2014-10-01T09:20:00,8,28112482,180926
OK,124,23,947,124,2014-10-01T09:25:00,10,28112931,180926
OK,129,22,947,129,2014-10-01T09:30:00,9,28113355,180926
OK,62,47,947,62,2014-10-01T09:35:00,5,28113804,180926
OK,63,46,947,63,2014-10-01T09:40:00,6,28114236,180926
OK,94,31,947,94,2014-10-01T09:45:00,1,28114685,180926
OK,94,31,947,94,2014-10-01T09:50:00,0,28115039,180926
OK,63,46,947,63,2014-10-01T09:55:00,10,28115488,180926
OK,65,45,947,65,2014-10-01T10:00:00,8,28115900,180926
OK,72,40,947,72,2014-10-01T10:05:00,9,28116349,180926
OK,66,44,947,66,2014-10-01T10:10:00,11,28116757,180926
OK,65,45,947,65,2014-10-01T10:15:00,7,28117206,180926
OK,70,41,947,70,2014-10-01T10:20:00,4,28117631,180926
OK,64,45,947,64,2014-10-01T10:25:00,7,28118080,180926
OK,64,45,947,64,2014-10-01T10:30:00,10,28118525,180926
OK,77,38,947,77,2014-10-01T10:35:00,5,28118972,180926
OK,65,45,947,65,2014-10-01T10:40:00,4,28119416,180926
OK,74,39,947,74,2014-10-01T10:45:00,7,28119864,180926
OK,66,44,947,66,2014-10-01T10:50:00,11,28120312,180926
OK,59,49,947,59,2014-10-01T10:55:00,9,28120761,180926
OK,61,47,947,61,2014-10-01T11:00:00,8,28121144,180926
OK,61,47,947,61,2014-10-01T11:05:00,4,28121593,180926
OK,67,43,947,67,2014-10-01T11:10:00,6,28122031,180926
OK,65,45,947,65,2014-10-01T11:15:00,7,28122480,180926
OK,68,43,947,68,2014-10-01T11:20:00,9,28122921,180926
OK,70,41,947,70,2014-10-01T11:25:00,11,28123370,180926
OK,68,43,947,68,2014-10-01T11:30:00,6,28123802,180926
OK,57,51,947,57,2014-10-01T11:35:00,4,28124251,180926
OK,57,51,947,57,2014-10-01T11:40:00,6,28124653,180926
OK,82,35,947,82,2014-10-01T11:45:00,2,28125102,180926
OK,66,44,947,66,2014-10-01T11:50:00,8,28125531,180926
OK,68,43,947,68,2014-10-01T11:55:00,12,28125980,180926
OK,68,43,947,68,2014-10-01T12:00:00,10,28126332,180926
OK,75,39,947,75,2014-10-01T12:05:00,8,28126781,180926
OK,72,40,947,72,2014-10-01T12:10:00,9,28127230,180926
OK,72,40,947,72,2014-10-01T12:15:00,8,28127679,180926
OK,67,43,947,67,2014-10-01T12:20:00,6,28128107,180926
OK,82,35,947,82,2014-10-01T12:25:00,8,28128556,180926
OK,97,30,947,97,2014-10-01T12:30:00,6,28128991,180926
OK,101,28,947,101,2014-10-01T12:35:00,8,28129440,180926
OK,94,31,947,94,2014-10-01T12:40:00,12,28129874,180926
OK,97,30,947,97,2014-10-01T12:45:00,9,28130323,180926
OK,102,28,947,102,2014-10-01T12:50:00,5,28130751,180926
OK,94,31,947,94,2014-10-01T12:55:00,8,28131200,180926
OK,101,28,947,101,2014-10-01T13:00:00,11,28131637,180926
OK,101,28,947,101,2014-10-01T13:05:00,7,28132086,180926
OK,100,29,947,100,2014-10-01T13:10:00,11,28132524,180926
OK,100,29,947,100,2014-10-01T13:15:00,13,28132971,180926
OK,104,28,947,104,2014-10-01T13:20:00,12,28133409,180926
OK,103,28,947,103,2014-10-01T13:25:00,9,28133858,180926
OK,101,28,947,101,2014-10-01T13:30:00,11,28134297,180926
OK,98,29,947,98,2014-10-01T13:35:00,10,28134746,180926
OK,102,28,947,102,2014-10-01T13:40:00,5,28135165,180926
OK,98,29,947,98,2014-10-01T13:45:00,14,28135614,180926
OK,98,29,947,98,2014-10-01T13:50:00,15,28136051,180926
OK,100,29,947,100,2014-10-01T13:55:00,5,28136500,180926
OK,103,28,947,103,2014-10-01T14:00:00,10,28136940,180926
OK,97,30,947,97,2014-10-01T14:05:00,10,28137389,180926
OK,98,29,947,98,2014-10-01T14:10:00,10,28137823,180926
OK,95,30,947,95,2014-10-01T14:15:00,10,28138272,180926
OK,94,31,947,94,2014-10-01T14:20:00,9,28138700,180926
OK,99,29,947,99,2014-10-01T14:25:00,6,28139149,180926
OK,96,30,947,96,2014-10-01T14:30:00,7,28139560,180926
OK,96,30,947,96,2014-10-01T14:35:00,6,28140009,180926
OK,98,29,947,98,2014-10-01T14:40:00,4,28140451,180926
OK,96,30,947,96,2014-10-01T14:45:00,5,28140900,180926
OK,91,32,947,91,2014-10-01T14:50:00,7,28141326,180926
OK,91,32,947,91,2014-10-01T14:55:00,13,28141775,180926
OK,97,30,947,97,2014-10-01T15:00:00,14,28142203,180926
OK,98,29,947,98,2014-10-01T15:05:00,10,28142652,180926
OK,98,29,947,98,2014-10-01T15:10:00,10,28143079,180926
OK,91,32,947,91,2014-10-01T15:15:00,6,28143528,180926
OK,99,29,947,99,2014-10-01T15:20:00,5,28143976,180926
OK,102,28,947,102,2014-10-01T15:25:00,4,28144425,180926
OK,87,33,947,87,2014-10-01T15:30:00,4,28144846,180926
OK,73,40,947,73,2014-10-01T15:35:00,4,28145260,180926
OK,76,38,947,76,2014-10-01T15:40:00,3,28145709,180926
OK,68,43,947,68,2014-10-01T15:45:00,4,28146158,180926
OK,66,44,947,66,2014-10-01T15:50:00,9,28146607,180926
OK,66,44,947,66,2014-10-01T15:55:00,7,28147015,180926
OK,63,46,947,63,2014-10-01T16:00:00,2,28147459,180926
OK,110,26,947,110,2014-10-01T16:05:00,1,28147908,180926
OK,135,21,947,135,2014-10-01T16:10:00,2,28148309,180926
OK,72,40,947,72,2014-10-01T16:15:00,4,28148758,180926
OK,68,43,947,68,2014-10-01T16:20:00,7,28149197,180926
OK,67,43,947,67,2014-10-01T16:25:00,5,28149646,180926
OK,64,45,947,64,2014-10-01T16:30:00,6,28150072,180926
OK,63,46,947,63,2014-10-01T16:35:00,7,28150521,180926
OK,63,46,947,63,2014-10-01T16:40:00,6,28150939,180926
OK,59,49,947,59,2014-10-01T16:45:00,4,28151388,180926
OK,59,49,947,59,2014-10-01T16:50:00,4,28151837,180926
OK,69,42,947,69,2014-10-01T17:00:00,3,28152286,180926
OK,64,45,947,64,2014-10-01T17:05:00,6,28152732,180926
OK,62,47,947,62,2014-10-01T17:10:00,7,28153179,180926
OK,68,43,947,68,2014-10-01T17:15:00,4,28153628,180926
OK,70,41,947,70,2014-10-01T17:20:00,4,28154038,180926
OK,71,41,947,71,2014-10-01T17:25:00,1,28154487,180926
OK,67,43,947,67,2014-10-01T17:30:00,1,28154929,180926
OK,66,44,947,66,2014-10-01T17:35:00,1,28155377,180926
OK,63,46,947,63,2014-10-01T17:40:00,1,28155795,180926
OK,66,44,947,66,2014-10-01T17:45:00,3,28156244,180926
OK,67,43,947,67,2014-10-01T17:50:00,1,28156693,180926
OK,58,50,947,58,2014-10-01T17:55:00,1,28157131,180926
OK,58,50,947,58,2014-10-01T18:00:00,0,28157561,180926
OK,110,26,947,110,2014-10-01T18:05:00,2,28158009,180926
OK,66,44,947,66,2014-10-01T18:10:00,2,28158453,180926
OK,101,28,947,101,2014-10-01T18:15:00,2,28158899,180926
OK,137,21,947,137,2014-10-01T18:20:00,0,28159345,180926
OK,70,41,947,70,2014-10-01T18:25:00,0,28159680,180926
OK,60,48,947,60,2014-10-01T18:30:00,4,28160129,180926
OK,68,43,947,68,2014-10-01T18:35:00,4,28160578,180926
OK,59,49,947,59,2014-10-01T18:40:00,1,28161016,180926
OK,49,59,947,49,2014-10-01T18:45:00,2,28161465,180926
OK,54,54,947,54,2014-10-01T18:50:00,2,28161882,180926
OK,60,48,947,60,2014-10-01T18:55:00,1,28162331,180926
OK,58,50,947,58,2014-10-01T19:00:00,2,28162725,180926
OK,67,43,947,67,2014-10-01T19:05:00,1,28163164,180926
OK,113,25,947,113,2014-10-01T19:10:00,2,28163612,180926
OK,160,18,947,160,2014-10-01T19:15:00,1,28164061,180926
OK,160,18,947,160,2014-10-01T19:20:00,0,28164492,180926
OK,57,51,947,57,2014-10-01T19:25:00,4,28164941,180926
OK,54,54,947,54,2014-10-01T19:30:00,3,28165366,180926
OK,62,47,947,62,2014-10-01T19:35:00,2,28165814,180926
OK,70,41,947,70,2014-10-01T19:40:00,3,28166255,180926
OK,81,36,947,81,2014-10-01T19:45:00,1,28166617,180926
OK,84,34,947,84,2014-10-01T19:50:00,1,28167066,180926
OK,62,47,947,62,2014-10-01T19:55:00,1,28167495,180926
OK,83,35,947,83,2014-10-01T20:00:00,2,28167928,180926
OK,74,39,947,74,2014-10-01T20:05:00,2,28168377,180926
OK,63,46,947,63,2014-10-01T20:10:00,2,28168822,180926
OK,67,43,947,67,2014-10-01T20:15:00,6,28169271,180926
OK,64,45,947,64,2014-10-01T20:20:00,4,28169719,180926
OK,48,60,947,48,2014-10-01T20:25:00,1,28170145,180926
OK,48,60,947,48,2014-10-01T20:30:00,0,28170590,180926
OK,48,60,947,48,2014-10-01T20:35:00,0,28171038,180926
OK,48,60,947,48,2014-10-01T20:40:00,0,28171475,180926
OK,51,57,947,51,2014-10-01T20:45:00,1,28171921,180926
OK,51,57,947,51,2014-10-01T20:50:00,0,28172369,180926
OK,51,57,947,51,2014-10-01T20:55:00,0,28172815,180926
OK,51,57,947,51,2014-10-01T21:00:00,0,28173261,180926
OK,51,57,947,51,2014-10-01T21:05:00,0,28173710,180926
OK,88,33,947,88,2014-10-01T21:10:00,1,28174151,180926
OK,75,39,947,75,2014-10-01T21:15:00,2,28174600,180926
OK,63,46,947,63,2014-10-01T21:20:00,0,28175026,180926
OK,116,25,947,116,2014-10-01T21:25:00,0,28175422,180926
OK,116,25,947,116,2014-10-01T21:30:00,0,28175871,180926
OK,57,51,947,57,2014-10-01T21:35:00,1,28176320,180926
OK,57,51,947,57,2014-10-01T21:40:00,0,28176769,180926
OK,57,51,947,57,2014-10-01T21:45:00,0,28177125,180926
OK,100,29,947,100,2014-10-01T21:50:00,1,28177565,180926
OK,100,29,947,100,2014-10-01T21:55:00,0,28178011,180926
OK,100,29,947,100,2014-10-01T22:00:00,0,28178460,180926
OK,100,29,947,100,2014-10-01T22:05:00,0,28178907,180926
OK,100,29,947,100,2014-10-01T22:10:00,0,28179341,180926
OK,96,30,947,96,2014-10-01T22:15:00,1,28179784,180926
OK,72,40,947,72,2014-10-01T22:20:00,1,28180231,180926
OK,72,40,947,72,2014-10-01T22:25:00,0,28180629,180926
OK,72,40,947,72,2014-10-01T22:30:00,0,28181078,180926
OK,72,40,947,72,2014-10-01T22:35:00,0,28181502,180926
OK,72,40,947,72,2014-10-01T22:40:00,0,28181950,180926
OK,72,40,947,72,2014-10-01T22:45:00,0,28182397,180926
OK,61,47,947,61,2014-10-01T22:50:00,1,28182846,180926
OK,61,47,947,61,2014-10-01T22:55:00,1,28183263,180926
OK,61,47,947,61,2014-10-01T23:00:00,0,28183696,180926
OK,61,47,947,61,2014-10-01T23:05:00,0,28184141,180926
OK,61,47,947,61,2014-10-01T23:10:00,0,28184590,180926
OK,61,47,947,61,2014-10-01T23:15:00,0,28185025,180926
OK,61,47,947,61,2014-10-01T23:20:00,0,28185473,180926
OK,61,47,947,61,2014-10-01T23:25:00,0,28185904,180926
OK,61,47,947,61,2014-10-01T23:30:00,0,28186296,180926
OK,61,47,947,61,2014-10-01T23:40:00,0,28187143,180926
OK,58,50,947,58,2014-10-01T23:55:00,0,28188475,180926
OK,58,50,947,58,2014-10-02T00:05:00,0,28189360,180926
OK,58,50,947,58,2014-10-02T00:10:00,0,28189782,180926
OK,58,50,947,58,2014-10-02T00:15:00,0,28190231,180926
OK,58,50,947,58,2014-10-02T00:20:00,0,28190584,180926
OK,58,50,947,58,2014-10-02T00:30:00,0,28191482,180926
OK,58,50,947,58,2014-10-02T00:35:00,0,28191788,180926
OK,58,50,947,58,2014-10-02T00:40:00,0,28192237,180926
OK,58,50,947,58,2014-10-02T00:45:00,0,28192670,180926
OK,58,50,947,58,2014-10-02T00:50:00,0,28193114,180926
OK,58,50,947,58,2014-10-02T00:55:00,0,28193481,180926
OK,58,50,947,58,2014-10-02T01:05:00,0,28194379,180926
OK,58,50,947,58,2014-10-02T01:10:00,0,28194828,180926
OK,58,50,947,58,2014-10-02T01:15:00,0,28195065,180926
OK,58,50,947,58,2014-10-02T01:25:00,0,28195962,180926
OK,58,50,947,58,2014-10-02T01:30:00,0,28196250,180926
OK,58,50,947,58,2014-10-02T01:35:00,0,28196695,180926
OK,58,50,947,58,2014-10-02T01:40:00,0,28197118,180926
OK,58,50,947,58,2014-10-02T01:45:00,0,28197567,180926
OK,58,50,947,58,2014-10-02T01:50:00,0,28198015,180926
OK,58,50,947,58,2014-10-02T01:55:00,0,28198463,180926
OK,58,50,947,58,2014-10-02T02:00:00,0,28198912,180926
OK,58,50,947,58,2014-10-02T02:05:00,0,28199284,180926
OK,58,50,947,58,2014-10-02T02:10:00,0,28199726,180926
OK,58,50,947,58,2014-10-02T02:15:00,0,28200168,180926
OK,58,50,947,58,2014-10-02T02:20:00,0,28200611,180926
OK,58,50,947,58,2014-10-02T02:25:00,0,28201060,180926
OK,58,50,947,58,2014-10-02T02:30:00,0,28201491,180926
OK,81,36,947,81,2014-10-02T02:45:00,0,28202389,180926
OK,81,36,947,81,2014-10-02T02:50:00,0,28202831,180926
OK,81,36,947,81,2014-10-02T02:55:00,0,28203279,180926
OK,81,36,947,81,2014-10-02T03:00:00,0,28203714,180926
OK,81,36,947,81,2014-10-02T03:10:00,0,28204163,180926
OK,81,36,947,81,2014-10-02T03:25:00,0,28204612,180926
OK,81,36,947,81,2014-10-02T03:30:00,0,28205061,180926
OK,45,65,947,45,2014-10-02T03:35:00,1,28205489,180926
OK,45,65,947,45,2014-10-02T03:40:00,0,28205936,180926
OK,64,45,947,64,2014-10-02T03:45:00,2,28206319,180926
OK,64,45,947,64,2014-10-02T03:55:00,0,28207217,180926
OK,61,47,947,61,2014-10-02T04:00:00,2,28207637,180926
OK,47,62,947,47,2014-10-02T04:05:00,0,28208085,180926
OK,47,62,947,47,2014-10-02T04:10:00,0,28208512,180926
OK,47,62,947,47,2014-10-02T04:15:00,0,28208961,180926
OK,47,62,947,47,2014-10-02T04:20:00,0,28209399,180926
OK,47,62,947,47,2014-10-02T04:25:00,0,28209848,180926
OK,53,55,947,53,2014-10-02T04:30:00,7,28210271,180926
OK,52,56,947,52,2014-10-02T04:35:00,4,28210720,180926
OK,58,50,947,58,2014-10-02T04:40:00,4,28211145,180926
OK,69,42,947,69,2014-10-02T04:45:00,0,28211589,180926
OK,69,42,947,69,2014-10-02T04:50:00,0,28211967,180926
OK,67,43,947,67,2014-10-02T04:55:00,7,28212416,180926
OK,70,41,947,70,2014-10-02T05:00:00,3,28212845,180926
OK,71,41,947,71,2014-10-02T05:05:00,1,28213294,180926
OK,71,41,947,71,2014-10-02T05:10:00,0,28213732,180926
OK,69,42,947,69,2014-10-02T05:15:00,7,28214181,180926
OK,77,38,947,77,2014-10-02T05:20:00,0,28214594,180926
OK,72,40,947,72,2014-10-02T05:25:00,4,28215043,180926
OK,116,25,947,116,2014-10-02T05:30:00,1,28215459,180926
OK,116,25,947,116,2014-10-02T05:35:00,0,28215908,180926
OK,57,51,947,57,2014-10-02T05:40:00,11,28216248,180926
OK,58,50,947,58,2014-10-02T05:45:00,6,28216687,180926
OK,59,49,947,59,2014-10-02T05:50:00,0,28217134,180926
OK,98,29,947,98,2014-10-02T05:55:00,13,28217583,180926
OK,102,28,947,102,2014-10-02T06:00:00,11,28218022,180926
OK,102,28,947,102,2014-10-02T06:05:00,13,28218471,180926
OK,58,50,947,58,2014-10-02T06:10:00,0,28218891,180926
OK,100,29,947,100,2014-10-02T06:15:00,5,28219340,180926
OK,75,39,947,75,2014-10-02T06:20:00,8,28219713,180926
OK,65,45,947,65,2014-10-02T06:25:00,14,28220162,180926
OK,61,47,947,61,2014-10-02T06:30:00,11,28220596,180926
OK,81,36,947,81,2014-10-02T06:35:00,13,28221045,180926
OK,55,53,947,55,2014-10-02T06:40:00,19,28221426,180926
OK,95,30,947,95,2014-10-02T06:45:00,15,28221712,180926
OK,50,58,947,50,2014-10-02T07:00:00,11,28222306,180926
OK,50,58,947,50,2014-10-02T07:05:00,8,28222755,180926
OK,49,59,947,49,2014-10-02T07:10:00,6,28223186,180926
OK,44,66,947,44,2014-10-02T07:15:00,2,28223621,180926
OK,47,62,947,47,2014-10-02T07:20:00,0,28224069,180926
OK,46,63,947,46,2014-10-02T07:25:00,4,28224424,180926
OK,65,45,947,65,2014-10-02T07:30:00,1,28224873,180926
OK,67,43,947,67,2014-10-02T07:35:00,8,28225322,180926
OK,65,45,947,65,2014-10-02T07:40:00,2,28225644,180926
OK,77,38,947,77,2014-10-02T07:50:00,8,28226534,180926
OK,71,41,947,71,2014-10-02T07:55:00,9,28226983,180926
OK,71,41,947,71,2014-10-02T08:00:00,2,28227398,180926
OK,65,45,947,65,2014-10-02T08:05:00,7,28227847,180926
OK,66,44,947,66,2014-10-02T08:10:00,2,28228206,180926
OK,68,43,947,68,2014-10-02T08:15:00,6,28228655,180926
OK,51,57,947,51,2014-10-02T08:20:00,2,28229065,180926
OK,64,45,947,64,2014-10-02T08:25:00,8,28229514,180926
OK,60,48,947,60,2014-10-02T08:30:00,2,28229864,180926
OK,61,47,947,61,2014-10-02T08:35:00,12,28230313,180926
OK,56,52,947,56,2014-10-02T08:40:00,2,28230679,180926
OK,56,52,947,56,2014-10-02T08:45:00,0,28231128,180926
OK,63,46,947,63,2014-10-02T08:50:00,9,28231551,180926
OK,62,47,947,62,2014-10-02T08:55:00,4,28232000,180926
OK,63,46,947,63,2014-10-02T09:00:00,8,28232342,180926
OK,72,40,947,72,2014-10-02T09:10:00,0,28232791,180926
OK,71,41,947,71,2014-10-02T09:15:00,8,28233240,180926
OK,74,39,947,74,2014-10-02T09:20:00,2,28233664,180926
OK,75,39,947,75,2014-10-02T09:25:00,0,28234113,180926
OK,75,39,947,75,2014-10-02T09:30:00,0,28234446,180926
OK,59,49,947,59,2014-10-02T09:40:00,2,28235322,180926
OK,63,46,947,63,2014-10-02T09:45:00,7,28235771,180926
OK,63,46,947,63,2014-10-02T09:50:00,4,28236214,180926
OK,70,41,947,70,2014-10-02T09:55:00,5,28236661,180926
OK,78,37,947,78,2014-10-02T10:00:00,1,28237064,180926
OK,78,37,947,78,2014-10-02T10:05:00,0,28237512,180926
OK,68,43,947,68,2014-10-02T10:10:00,10,28237960,180926
OK,68,43,947,68,2014-10-02T10:15:00,8,28238407,180926
OK,72,40,947,72,2014-10-02T10:20:00,13,28238848,180926
OK,78,37,947,78,2014-10-02T10:25:00,4,28239297,180926
OK,82,35,947,82,2014-10-02T10:30:00,0,28239727,180926
OK,59,49,947,59,2014-10-02T10:35:00,9,28240176,180926
OK,57,51,947,57,2014-10-02T10:40:00,11,28240620,180926
OK,63,46,947,63,2014-10-02T10:45:00,12,28241069,180926
OK,65,45,947,65,2014-10-02T10:50:00,3,28241501,180926
OK,66,44,947,66,2014-10-02T10:55:00,12,28241949,180926
OK,67,43,947,67,2014-10-02T11:00:00,8,28242345,180926
OK,62,47,947,62,2014-10-02T11:05:00,0,28242794,180926
OK,72,40,947,72,2014-10-02T11:10:00,5,28243243,180926
OK,72,40,947,72,2014-10-02T11:15:00,5,28243572,180926
OK,68,43,947,68,2014-10-02T11:20:00,5,28244006,180926
OK,68,43,947,68,2014-10-02T11:25:00,1,28244435,180926
OK,68,43,947,68,2014-10-02T11:30:00,0,28244884,180926
OK,68,43,947,68,2014-10-02T11:35:00,10,28245333,180926
OK,62,47,947,62,2014-10-02T11:40:00,1,28245739,180926
OK,62,47,947,62,2014-10-02T11:45:00,0,28246188,180926
OK,62,47,947,62,2014-10-02T11:50:00,9,28246625,180926
OK,69,42,947,69,2014-10-02T11:55:00,10,28247074,180926
OK,70,41,947,70,2014-10-02T12:00:00,10,28247520,180926
OK,67,43,947,67,2014-10-02T12:05:00,1,28247950,180926
OK,67,43,947,67,2014-10-02T12:10:00,0,28248399,180926
OK,65,45,947,65,2014-10-02T12:15:00,1,28248846,180926
OK,65,45,947,65,2014-10-02T12:20:00,0,28249274,180926
OK,94,31,947,94,2014-10-02T12:25:00,4,28249718,180926
OK,173,16,947,173,2014-10-02T12:30:00,1,28250137,180926
OK,96,30,947,96,2014-10-02T12:35:00,4,28250535,180926
OK,95,30,947,95,2014-10-02T13:20:00,9,28251860,180926
OK,96,30,947,96,2014-10-02T13:30:00,14,28252444,180926
OK,96,30,947,96,2014-10-02T13:35:00,8,28252886,180926
OK,83,35,947,83,2014-10-02T13:40:00,0,28253303,180926
OK,102,28,947,102,2014-10-02T13:45:00,11,28253752,180926
OK,100,29,947,100,2014-10-02T13:50:00,7,28254157,180926
OK,100,29,947,100,2014-10-02T13:55:00,21,28254478,180926
OK,103,28,947,103,2014-10-02T14:10:00,7,28255055,180926
OK,102,28,947,102,2014-10-02T14:15:00,8,28255504,180926
OK,100,29,947,100,2014-10-02T14:20:00,7,28255932,180926
OK,84,34,947,84,2014-10-02T14:25:00,2,28256381,180926
OK,103,28,947,103,2014-10-02T14:30:00,7,28256809,180926
OK,95,30,947,95,2014-10-02T14:35:00,4,28257258,180926
OK,89,32,947,89,2014-10-02T14:40:00,3,28257699,180926
OK,95,30,947,95,2014-10-02T14:45:00,5,28258147,180926
OK,96,30,947,96,2014-10-02T14:50:00,6,28258580,180926
OK,99,29,947,99,2014-10-02T14:55:00,5,28259026,180926
OK,93,31,947,93,2014-10-02T15:00:00,5,28259475,180926
OK,95,30,947,95,2014-10-02T15:05:00,5,28259922,180926
OK,93,31,947,93,2014-10-02T15:10:00,4,28260355,180926
OK,95,30,947,95,2014-10-02T15:15:00,2,28260804,180926
OK,100,29,947,100,2014-10-02T15:20:00,0,28261244,180926
OK,85,34,947,85,2014-10-02T15:25:00,3,28261626,180926
OK,62,47,947,62,2014-10-02T15:30:00,1,28262056,180926
OK,66,44,947,66,2014-10-02T15:40:00,0,28262949,180926
OK,66,44,947,66,2014-10-02T15:45:00,5,28263387,180926
OK,78,37,947,78,2014-10-02T15:50:00,3,28263828,180926
OK,60,48,947,60,2014-10-02T15:55:00,0,28264230,180926
OK,60,48,947,60,2014-10-02T16:00:00,0,28264679,180926
OK,67,43,947,67,2014-10-02T16:05:00,4,28265117,180926
OK,71,41,947,71,2014-10-02T16:10:00,6,28265557,180926
OK,74,39,947,74,2014-10-02T16:15:00,2,28265953,180926